When you browse on this site, cookies collect data to enhance your experience and personalize the content and advertising you see.
Visit our Privacy Policy to learn more. By continuing to use the site, you agree to this use of cookies and data.
  • en France
  • Liste des pays
  • À 7 jours
  • Température de l'eau
  • Carte satellitaire
  • Carte météo
  • Widgets météo
  • user-avatar
    Se connecter

    Météo par heure à Bayramaul

    Ce jour, 24 Janvier, Jeudi

    Heure Température Précipitation Vent Pression Humidité
    00:00 +2°C° 0 mm 5 m/s 762 mmHg 87%
    01:00 +2°C° 0 mm 5 m/s 762 mmHg 86%
    02:00 +3°C° 0 mm 5 m/s 762 mmHg 85%
    03:00 +3°C° 0 mm 6 m/s 761 mmHg 79%
    04:00 +3°C° 0 mm 6 m/s 761 mmHg 79%
    05:00 +3°C° 0 mm 5 m/s 761 mmHg 80%
    06:00 +3°C° 0 mm 4 m/s 761 mmHg 81%
    07:00 +4°C° 0 mm 4 m/s 761 mmHg 78%
    08:00 +5°C° 0 mm 4 m/s 761 mmHg 74%
    09:00 +6°C° 0 mm 5 m/s 761 mmHg 71%
    10:00 +7°C° 0 mm 5 m/s 760 mmHg 67%
    11:00 +8°C° 0 mm 6 m/s 760 mmHg 64%
    12:00 +9°C° 0 mm 6 m/s 759 mmHg 60%
    13:00 +9°C° 0 mm 6 m/s 758 mmHg 61%
    14:00 +9°C° 0 mm 6 m/s 758 mmHg 61%
    15:00 +9°C° 0 mm 5 m/s 757 mmHg 62%
    16:00 +8°C° 0 mm 5 m/s 757 mmHg 68%
    17:00 +7°C° 0 mm 4 m/s 757 mmHg 74%
    18:00 +7°C° 0 mm 3 m/s 757 mmHg 79%
    19:00 +7°C° 0 mm 3 m/s 756 mmHg 77%
    20:00 +5°C° 0 mm 3 m/s 756 mmHg 75%
    21:00 +6°C° 0 mm 2 m/s 755 mmHg 72%
    22:00 +6°C° 0 mm 2 m/s 755 mmHg 70%
    23:00 +6°C° 0 mm 2 m/s 755 mmHg 68%

    Demain, 25 Janvier, Vendredi

    Heure Température Précipitation Vent Pression Humidité
    00:00 +6°C° 0 mm 1 m/s 755 mmHg 66%
    01:00 +5°C° 0 mm 2 m/s 755 mmHg 69%
    02:00 +5°C° 0 mm 2 m/s 755 mmHg 71%
    03:00 +3°C° 0 mm 3 m/s 755 mmHg 74%
    04:00 +3°C° 0 mm 3 m/s 755 mmHg 75%
    05:00 +3°C° 0 mm 3 m/s 755 mmHg 76%
    06:00 +3°C° 0 mm 3 m/s 755 mmHg 77%
    07:00 +4°C° 0 mm 3 m/s 755 mmHg 75%
    08:00 +4°C° 0 mm 3 m/s 755 mmHg 73%
    09:00 +5°C° 0 mm 4 m/s 756 mmHg 70%
    10:00 +6°C° 0 mm 4 m/s 756 mmHg 67%
    11:00 +7°C° 0 mm 4 m/s 756 mmHg 63%
    12:00 +8°C° 0 mm 4 m/s 756 mmHg 60%
    13:00 +8°C° 0 mm 4 m/s 756 mmHg 59%
    14:00 +8°C° 0 mm 4 m/s 756 mmHg 58%
    15:00 +10°C° 0 mm 4 m/s 757 mmHg 56%
    16:00 +7°C° 0 mm 4 m/s 757 mmHg 64%
    17:00 +7°C° 0 mm 3 m/s 758 mmHg 71%
    18:00 +5°C° 0 mm 3 m/s 759 mmHg 78%
    19:00 +4°C° 0 mm 3 m/s 759 mmHg 80%
    20:00 +5°C° 0 mm 2 m/s 759 mmHg 82%
    21:00 +5°C° 0 mm 2 m/s 760 mmHg 85%
    22:00 +4°C° 0 mm 2 m/s 760 mmHg 85%
    23:00 +5°C° 0 mm 1 m/s 760 mmHg 84%

    Après-demain, 26 Janvier, Samedi

    Heure Température Précipitation Vent Pression Humidité
    00:00 +5°C° 0 mm 1 m/s 760 mmHg 84%
    01:00 +5°C° 0 mm 1 m/s 761 mmHg 85%
    02:00 +4°C° 0 mm 1 m/s 761 mmHg 86%
    03:00 +4°C° 0 mm 1 m/s 761 mmHg 87%
    04:00 +4°C° 0 mm 1 m/s 761 mmHg 87%
    05:00 +3°C° 0 mm 1 m/s 761 mmHg 87%
    06:00 +2°C° 0 mm 2 m/s 761 mmHg 88%
    07:00 +3°C° 0 mm 2 m/s 761 mmHg 85%
    08:00 +3°C° 0 mm 2 m/s 761 mmHg 82%
    09:00 +3°C° 0 mm 3 m/s 761 mmHg 79%
    10:00 +4°C° 0 mm 3 m/s 760 mmHg 74%
    11:00 +5°C° 0 mm 4 m/s 759 mmHg 69%
    12:00 +7°C° 0 mm 5 m/s 759 mmHg 64%
    13:00 +7°C° 0 mm 5 m/s 758 mmHg 65%
    14:00 +7°C° 0 mm 5 m/s 758 mmHg 65%
    15:00 +7°C° 0 mm 5 m/s 757 mmHg 66%
    16:00 +6°C° 0 mm 4 m/s 757 mmHg 72%
    17:00 +5°C° 0 mm 4 m/s 757 mmHg 79%
    18:00 +4°C° 0 mm 3 m/s 757 mmHg 85%
    19:00 +4°C° 0 mm 3 m/s 757 mmHg 85%
    20:00 +5°C° 0 mm 2 m/s 757 mmHg 86%
    21:00 +5°C° 0 mm 2 m/s 757 mmHg 86%
    22:00 +5°C° 0 mm 2 m/s 756 mmHg 86%
    23:00 +4°C° 0 mm 2 m/s 756 mmHg 86%

    27 Janvier, Dimanche

    Heure Température Précipitation Vent Pression Humidité
    00:00 +5°C° 0 mm 1 m/s 756 mmHg 85%
    01:00 +5°C° 0 mm 1 m/s 756 mmHg 85%
    02:00 +5°C° 0 mm 1 m/s 756 mmHg 85%
    03:00 +5°C° 0 mm 1 m/s 755 mmHg 85%
    04:00 +5°C° 0 mm 1 m/s 755 mmHg 84%
    05:00 +5°C° 0 mm 1 m/s 755 mmHg 84%
    06:00 +5°C° 0 mm 1 m/s 755 mmHg 83%
    07:00 +4°C° 0 mm 2 m/s 755 mmHg 80%
    08:00 +5°C° 0 mm 2 m/s 754 mmHg 77%
    09:00 +6°C° 0 mm 2 m/s 754 mmHg 74%
    10:00 +8°C° 0 mm 3 m/s 754 mmHg 67%
    11:00 +8°C° 0 mm 4 m/s 753 mmHg 61%
    12:00 +11°C° 0 mm 4 m/s 752 mmHg 54%
    13:00 +11°C° 0 mm 4 m/s 752 mmHg 56%
    14:00 +10°C° 0 mm 5 m/s 751 mmHg 57%
    15:00 +10°C° 0 mm 5 m/s 751 mmHg 58%
    16:00 +9°C° 0 mm 5 m/s 751 mmHg 66%
    17:00 +8°C° 0 mm 4 m/s 751 mmHg 74%
    18:00 +6°C° 0 mm 4 m/s 751 mmHg 82%
    19:00 +7°C° 0 mm 3 m/s 751 mmHg 82%
    20:00 +7°C° 0 mm 2 m/s 752 mmHg 83%
    21:00 +8°C° 0 mm 1 m/s 752 mmHg 83%
    22:00 +7°C° 0 mm 1 m/s 752 mmHg 84%
    23:00 +7°C° 0 mm 1 m/s 752 mmHg 85%

    28 Janvier, Lundi

    Heure Température Précipitation Vent Pression Humidité
    00:00 +7°C° 0 mm 1 m/s 752 mmHg 87%
    01:00 +6°C° 0 mm 2 m/s 752 mmHg 87%
    02:00 +6°C° 0 mm 2 m/s 753 mmHg 87%
    03:00 +6°C° 0 mm 2 m/s 753 mmHg 87%
    04:00 +5°C° 0 mm 3 m/s 754 mmHg 87%
    05:00 +5°C° 0 mm 3 m/s 755 mmHg 88%
    06:00 +5°C° 0 mm 4 m/s 756 mmHg 88%
    07:00 +5°C° 0 mm 4 m/s 756 mmHg 83%
    08:00 +6°C° 0 mm 4 m/s 757 mmHg 78%
    09:00 +6°C° 0 mm 4 m/s 757 mmHg 72%
    10:00 +7°C° 0 mm 4 m/s 757 mmHg 69%
    11:00 +9°C° 0 mm 3 m/s 757 mmHg 65%
    12:00 +10°C° 0 mm 3 m/s 757 mmHg 62%
    13:00 +10°C° 0 mm 3 m/s 757 mmHg 61%
    14:00 +10°C° 0 mm 3 m/s 757 mmHg 60%
    15:00 +10°C° 0 mm 2 m/s 757 mmHg 59%
    16:00 +10°C° 0 mm 2 m/s 757 mmHg 60%
    17:00 +9°C° 0 mm 2 m/s 758 mmHg 62%
    18:00 +9°C° 0 mm 2 m/s 759 mmHg 63%
    19:00 +9°C° 0 mm 1 m/s 759 mmHg 65%
    20:00 +9°C° 0 mm 1 m/s 759 mmHg 68%
    21:00 +8°C° 0 mm 1 m/s 759 mmHg 70%
    22:00 +8°C° 0 mm 1 m/s 759 mmHg 72%
    23:00 +7°C° 0 mm 1 m/s 759 mmHg 75%

    29 Janvier, Mardi

    Heure Température Précipitation Vent Pression Humidité
    00:00 +6°C° 0 mm 2 m/s 759 mmHg 78%
    01:00 +5°C° 0 mm 2 m/s 759 mmHg 80%
    02:00 +5°C° 0 mm 2 m/s 759 mmHg 83%
    03:00 +4°C° 0 mm 2 m/s 759 mmHg 86%
    04:00 +4°C° 0 mm 2 m/s 759 mmHg 86%
    05:00 +4°C° 0 mm 2 m/s 759 mmHg 87%
    06:00 +3°C° 0 mm 2 m/s 759 mmHg 88%
    07:00 +4°C° 0 mm 2 m/s 760 mmHg 85%
    08:00 +4°C° 0 mm 2 m/s 760 mmHg 81%
    09:00 +5°C° 0 mm 2 m/s 761 mmHg 78%
    10:00 +6°C° 0 mm 2 m/s 761 mmHg 73%
    11:00 +7°C° 0 mm 2 m/s 761 mmHg 69%
    12:00 +8°C° 0 mm 2 m/s 760 mmHg 64%
    13:00 +8°C° 0 mm 3 m/s 760 mmHg 63%
    14:00 +9°C° 0 mm 3 m/s 761 mmHg 61%
    15:00 +9°C° 0 mm 3 m/s 761 mmHg 60%
    16:00 +8°C° 0 mm 3 m/s 761 mmHg 65%
    17:00 +7°C° 0 mm 3 m/s 762 mmHg 69%
    18:00 +5°C° 0 mm 3 m/s 762 mmHg 74%
    19:00 +4°C° 0 mm 3 m/s 762 mmHg 76%
    20:00 +5°C° 0 mm 2 m/s 763 mmHg 78%
    21:00 +5°C° 0 mm 2 m/s 763 mmHg 79%
    22:00 +5°C° 0 mm 2 m/s 763 mmHg 80%
    23:00 +5°C° 0 mm 2 m/s 763 mmHg 80%
    Voir plus